| time (UTC) | temp F | wind direction | speed knots | gust knots | rain 1hr in | rain 24hr in | rain mn in | humidity % | barometer mb |
| 20260507235909 | 58 | 59 | 0.9 | 2.6 | 0.00 | 0.12 | 0.00 | 81 | 1007.2 |
| 20260507220042 | 63 | 322 | 0.9 | 7.0 | 0.00 | 0.00 | 0.00 | 88 | 987.1 |
| 20260507215936 | 58 | 355 | 0.0 | 0.0 | 0.00 | 0.14 | 0.00 | 82 | 1007.9 |
| 20260507201514 | 63 | 360 | 1.7 | 7.8 | 0.00 | 0.00 | 0.00 | 86 | 986.6 |
| 20260507191137 | 63 | 328 | 0.9 | 7.0 | 0.00 | 0.00 | 0.00 | 85 | 986.8 |
| 20260507185935 | 64 | 355 | 0.0 | 0.0 | 0.00 | 0.19 | 0.14 | 67 | 1008.5 |
| 20260507181019 | 63 | 302 | 3.5 | 8.7 | 0.00 | 0.00 | 0.00 | 85 | 986.4 |
| 20260507165932 | 73 | 355 | 0.0 | 0.0 | 0.00 | 0.21 | 0.14 | 48 | 1008.3 |
| 20260507161558 | 63 | 80 | 1.7 | 9.6 | 0.00 | 0.00 | 0.00 | 84 | 986.4 |
| 20260507151519 | 64 | 32 | 0.9 | 7.8 | 0.00 | 0.00 | 0.00 | 82 | 986.8 |
| 20260507145931 | 76 | 344 | 1.7 | 4.3 | 0.00 | 0.21 | 0.14 | 51 | 1008.6 |
| 20260507135924 | 77 | 267 | 0.9 | 3.5 | 0.00 | 0.21 | 0.14 | 51 | 1009.4 |
| 20260507131808 | 66 | 59 | 4.3 | 13.9 | 0.00 | 0.00 | 0.00 | 76 | 988.6 |
| 20260507121518 | 65 | 59 | 2.6 | 10.4 | 0.00 | 0.00 | 0.00 | 78 | 988.7 |
| 20260507115933 | 72 | 94 | 1.7 | 4.3 | 0.00 | 0.21 | 0.14 | 62 | 1010.3 |
| 20260507111115 | 68 | 45 | 3.5 | 8.7 | 0.00 | 0.00 | 0.00 | 72 | 989.3 |
| 20260507105929 | 71 | 239 | 1.7 | 4.3 | 0.00 | 0.21 | 0.14 | 66 | 1011.1 |
| 20260507091150 | 66 | 5 | 2.6 | 12.2 | 0.00 | 0.00 | 0.00 | 73 | 989.9 |
| 20260507085921 | 68 | 302 | 0.9 | 3.5 | 0.00 | 0.21 | 0.14 | 70 | 1011.3 |
| 20260507075920 | 66 | 308 | 0.0 | 1.7 | 0.00 | 0.21 | 0.14 | 75 | 1011.5 |
| 20260507071628 | 65 | 40 | 3.5 | 8.7 | 0.00 | 0.00 | 0.00 | 81 | 990.0 |
| 20260507065914 | 62 | 306 | 0.9 | 3.5 | 0.00 | 0.21 | 0.14 | 87 | 1011.5 |
| 20260507061054 | 61 | 355 | 1.7 | 7.0 | 0.00 | 0.00 | 0.00 | 92 | 990.1 |
| 20260507050114 | 56 | 239 | 0.0 | 0.0 | 0.00 | 0.24 | 0.14 | 95 | 1010.9 |
| 20260507041510 | 60 | 313 | 0.9 | 4.3 | 0.00 | 0.00 | 0.00 | 92 | 989.6 |
| 20260507035916 | 56 | 239 | 0.0 | 0.0 | 0.00 | 0.24 | 0.14 | 94 | 1010.9 |
| 20260507021542 | 60 | 90 | 0.9 | 2.6 | 0.00 | 0.00 | 0.00 | 91 | 989.2 |
| 20260507015924 | 57 | 239 | 0.0 | 0.0 | 0.02 | 0.24 | 0.13 | 94 | 1010.9 |